Location: Freistadt
(48.5112°N, 14.5013°E)
Time: 10:10:27
(UTC+02:00)

NOAA 16 DEB - Pass Details

Date: 26 May 2024
Orbit: 738 x 810 km, 99.0° (Epoch: 16 June)

Event Time Altitude Azimuth Distance (km) Brightness Sun altitude
Rises 03:47:50 0° 150° (SSE) 3,322 ? -10.8°
Reaches altitude 10° 03:50:12 10° 147° (SSE) 2,393 ? -10.5°
Maximum altitude 03:55:23 58° 69° (ENE) 942 ? -10.0°
Drops below altitude 10° 04:00:33 10° 352° (N) 2,386 ? -9.4°
Sets 04:02:54 0° 349° (NNW) 3,311 ? -9.1°
